Weather in Royan

France     45°40′18″N   1°00′37″W
temp.,
°C
wind,
m/s
gust,
m/s
humid.,
%
clouds,
%
prec.,
mm/h
press.,
hPa
HPBL,
m
3 march, wed
wed301:00+10se5108415 0.0 1028197
04:00+9sse488769 0.0 1028188
07:00+7se359370 0.0 102994
10:00+11sse468248 0.0 1029222
13:00+16ssw346858 0.0 1029600
16:00+15sw34730 0.0 1027410
19:00+11nw129118 0.0 102722
22:00+9nne229218 0.0 102722
4 march, thu
thu401:00+9ne129259 0.0 102622
04:00+8ne2294100 0.0 102423
07:00+7ene239585 0.0 102331
10:00+11ene238739 0.0 1023254
13:00+14nne227470 0.0 1022648
16:00+15nne3473100 0.0 1020854
19:00+11n3582100 0.0 1019103
22:00+9ne4887100 0.0 1020169
5 march, fri
fri501:00+7ne4992100 0.0 1020219
04:00+7ne4990100 0.0 1020214
07:00+6ne4992100 0.0 1020249
10:00+9ne7118599 0.0 1021489
13:00+12ne796656 0.0 10211002
16:00+12ne79662 0.0 10211095
19:00+7nne612768 0.0 1022563
22:00+5ne613800 0.0 1024572
6 march, sat
sat601:00+3ne512800 0.0 1025460
04:00+2ne512810 0.0 1024362
07:00+1ne512830 0.0 1025363
10:00+4ne610720 0.0 1026465
13:00+9ne68630 0.0 1026765
16:00+10ne57600 0.0 1025941
19:00+6nne48760 0.0 1025176
22:00+3nne47830 0.0 1026148
7 march, sun
sun701:00+1nne34850 0.0 102574
04:000nne23900 0.0 102550
07:00−1nne23940 0.0 102543
10:00+4ne22750 0.0 1025254
13:00+9w21610 0.0 1024651
16:00+9wnw33680 0.0 1022476
19:00+5nw23810 0.0 102128
22:00+4nnw22880 0.0 102223